This demonstration page uses our WeatherBlox Daily Observations layout. Learn more.

Hourly Observations for April 10, 2015

Temp ( °F °C ) Dew Point ( °F °C ) Humidity (%) Winds ( mph kmh ) Pressure ( in mb ) Visibility ( mi km ) Precip ( " mm )
12:15 am 00:15 Clear 37 2.6 30 -1 77 77 W 13 20 30.21 1023 10 16.0934 0 0
12:35 am 00:35 Clear 37 2.5 30 -1.1 77 77 W 12 19 30.21 1023 10 16.0934 0 0
12:55 am 00:55 Clear 36 2.3 29 -1.5 76 76 W 10 17 30.21 1023 10 16.0934 0 0
1:15 am 01:15 Clear 35 1.9 29 -1.5 78 78 W 9 15 30.21 1023 10 16.0934 0 0
1:35 am 01:35 Clear 35 1.5 29 -1.6 80 80 W 9 15 30.21 1023 10 16.0934 0 0
1:55 am 01:55 Clear 36 2 29 -1.5 78 78 W 12 19 30.21 1023 10 16.0934 0 0
2:15 am 02:15 Clear 36 2.3 29 -1.9 74 74 W 13 20 30.21 1023 10 16.0934 0 0
2:35 am 02:35 Clear 36 2.2 29 -1.9 75 75 W 12 19 30.21 1023 10 16.0934 0 0
2:55 am 02:55 Clear 36 2.2 28 -2.1 74 74 W 13 20 30.21 1023 10 16.0934 0 0
3:15 am 03:15 Clear 37 2.8 28 -2.1 70 70 W 14 22 30.21 1023 10 16.0934 0 0
3:35 am 03:35 Clear 37 2.6 28 -2.2 71 71 W 13 20 30.21 1023 10 16.0934 0 0
3:55 am 03:55 Clear 36 2.2 28 -2.4 72 72 W 14 22 30.21 1023 10 16.0934 0 0
4:15 am 04:15 Clear 36 2 28 -2.2 74 74 W 14 22 30.21 1023 10 16.0934 0 0
4:35 am 04:35 Clear 36 2.3 28 -2.2 72 72 W 14 22 30.21 1023 10 16.0934 0 0
4:55 am 04:55 Clear 36 2.2 28 -2 74 74 W 16 26 30.21 1023 10 16.0934 0 0
5:15 am 05:15 Clear 35 1.9 28 -2 76 76 W 17 28 30.21 1023 10 16.0934 0 0
5:35 am 05:35 Clear 35 1.5 29 -1.9 78 78 W 14 22 30.21 1023 10 16.0934 0 0
5:55 am 05:55 Clear 34 1.2 29 -1.8 81 81 W 13 20 30.21 1023 10 16.0934 0 0
6:15 am 06:15 Clear 34 1.2 29 -1.5 82 82 W 12 19 30.21 1023 10 16.0934 0 0
6:35 am 06:35 Clear 35 1.5 29 -1.5 81 81 W 12 19 30.21 1023 10 16.0934 0 0
6:55 am 06:55 Clear 34 1.1 29 -1.7 82 82 W 10 17 30.21 1023 10 16.0934 0 0
7:15 am 07:15 Sunny 34 1.1 29 -1.9 81 81 W 10 17 30.21 1023 10 16.0934 0 0
7:35 am 07:35 Sunny 35 1.4 29 -1.7 80 80 W 9 15 30.21 1023 10 16.0934 0 0
7:55 am 07:55 Sunny 36 2.1 29 -1.7 76 76 WNW 5 7 30.21 1023 10 16.0934 0 0
8:15 am 08:15 Sunny 37 2.6 30 -1.3 76 76 W 7 11 30.21 1023 10 16.0934 0 0
8:35 am 08:35 Sunny 39 3.9 31 -0.5 73 73 WNW 5 7 30.18 1022 10 16.0934 0 0
8:55 am 08:55 Sunny 41 5.1 32 0 70 70 W 7 11 30.18 1022 10 16.0934 0 0
9:15 am 09:15 Sunny 44 6.8 34 1.1 67 67 WNW 8 13 30.18 1022 10 16.0934 0 0
9:35 am 09:35 Sunny 47 8.2 35 1.6 63 63 WNW 8 13 30.15 1021 10 16.0934 0 0
9:55 am 09:55 Sunny 50 10 35 1.6 56 56 W 9 15 30.15 1021 10 16.0934 0 0
10:15 am 10:15 Sunny 52 11.2 35 1.6 52 52 W 12 19 30.15 1021 10 16.0934 0 0
10:35 am 10:35 Sunny 55 12.5 35 1.5 47 47 W 12 19 30.15 1021 10 16.0934 0 0
10:55 am 10:55 Sunny 56 13.2 35 1.8 46 46 W 12 19 30.15 1021 10 16.0934 0 0
11:15 am 11:15 Sunny 57 13.8 33 0.4 40 40 W 13 20 30.12 1020 10 16.0934 0 0
11:35 am 11:35 Sunny 58 14.7 32 -0.2 36 36 WSW 12 19 30.12 1020 10 16.0934 0 0
11:55 am 11:55 Sunny 59 14.8 31 -0.3 36 36 WSW 10 17 30.12 1020 10 16.0934 0 0
12:15 pm 12:15 Sunny 60 15.7 30 -1 32 32 SW 10 17 30.12 1020 10 16.0934 0 0
12:35 pm 12:35 Sunny 60 15.6 29 -1.4 31 31 W 10 17 30.12 1020 10 16.0934 0 0
12:55 pm 12:55 Sunny 61 16 27 -2.9 27 27 NW 6 9 30.09 1019 10 16.0934 0 0
1:15 pm 13:15 Sunny 61 16.3 27 -3 27 27 WSW 6 9 30.09 1019 10 16.0934 0 0
1:35 pm 13:35 Sunny 62 16.4 26 -3.1 26 26 WSW 10 17 30.09 1019 10 16.0934 0 0
1:55 pm 13:55 Sunny 62 16.8 26 -3.6 25 25 W 3 6 30.09 1019 10 16.0934 0 0
2:15 pm 14:15 Sunny 63 17.1 26 -3.6 24 24 W 7 11 30.09 1019 10 16.0934 0 0
2:35 pm 14:35 Sunny 63 17.4 26 -3.6 24 24 W 8 13 30.09 1019 10 16.0934 0 0
2:55 pm 14:55 Sunny 63 17.4 24 -4.3 23 23 W 6 9 30.09 1019 10 16.0934 0 0
3:15 pm 15:15 Sunny 64 17.5 23 -4.9 21 21 W 5 7 30.06 1018 10 16.0934 0 0
3:35 pm 15:35 Sunny 64 18 22 -5.4 20 20 Calm 30.06 1018 10 16.0934 0 0
3:55 pm 15:55 Sunny 65 18.2 22 -5.4 20 20 S 3 6 30.03 1017 10 16.0934 0 0
4:15 pm 16:15 Sunny 65 18.5 23 -5.1 20 20 S 8 13 30.03 1017 10 16.0934 0 0
4:35 pm 16:35 Sunny 65 18.4 22 -5.5 19 19 Calm 30.03 1017 10 16.0934 0 0
4:55 pm 16:55 Sunny 65 18.4 22 -5.3 20 20 SW 3 6 30.03 1017 10 16.0934 0 0
5:15 pm 17:15 Sunny 65 18.5 22 -5.4 19 19 Calm 30 1016 10 16.0934 0 0
5:35 pm 17:35 Sunny 66 18.7 22 -5.6 19 19 Calm 30 1016 10 16.0934 0 0
5:55 pm 17:55 Sunny 65 18.5 22 -5.5 19 19 S 7 11 30 1016 10 16.0934 0 0
6:15 pm 18:15 Sunny 65 18.5 22 -5.7 19 19 SSE 7 11 30 1016 10 16.0934 0 0
6:35 pm 18:35 Sunny 65 18.5 22 -5.5 19 19 S 7 11 30 1016 10 16.0934 0 0
6:55 pm 18:55 Sunny 65 18.2 22 -5.4 20 20 S 8 13 30 1016 10 16.0934 0 0
7:15 pm 19:15 Sunny 64 17.7 22 -5.3 20 20 S 6 9 30 1016 10 16.0934 0 0
7:35 pm 19:35 Sunny 60 15.7 26 -3.6 26 26 SSE 6 9 30.03 1017 10 16.0934 0 0
7:55 pm 19:55 Sunny 59 15 26 -3.3 28 28 SSE 6 9 30.03 1017 10 16.0934 0 0
8:15 pm 20:15 Clear 56 13.6 27 -2.9 32 32 SSE 6 9 30.03 1017 10 16.0934 0 0
8:35 pm 20:35 Clear 52 11 28 -2.1 40 40 SSE 6 9 30.06 1018 10 16.0934 0 0
8:55 pm 20:55 Clear 53 11.6 27 -3 36 36 S 7 11 30.06 1018 10 16.0934 0 0
9:15 pm 21:15 Clear 53 11.6 27 -3 36 36 S 7 11 30.06 1018 10 16.0934 0 0
9:35 pm 21:35 Clear 52 11.3 27 -2.9 37 37 S 8 13 30.09 1019 10 16.0934 0 0
9:55 pm 21:55 Clear 52 11.1 27 -3 37 37 S 7 11 30.09 1019 10 16.0934 0 0
10:15 pm 22:15 Clear 52 11.1 26 -3.1 37 37 S 7 11 30.09 1019 10 16.0934 0 0
10:35 pm 22:35 Clear 52 11.3 26 -3.6 35 35 S 9 15 30.09 1019 10 16.0934 0 0
10:55 pm 22:55 Clear 48 8.8 27 -2.6 45 45 S 6 9 30.12 1020 10 16.0934 0 0
11:15 pm 23:15 Clear 46 8 27 -2.7 47 47 S 7 11 30.12 1020 10 16.0934 0 0
11:35 pm 23:35 Clear 48 8.8 27 -3 44 44 S 8 13 30.12 1020 10 16.0934 0 0
11:55 pm 23:55 Clear 48 8.7 26 -3.2 43 43 S 9 15 30.12 1020 10 16.0934 0 0

Powered by AerisWeather